Flag for New Zealand Weather past 2 weeks in Auckland, New Zealand

Now
59 °F

Partly sunny.


Feels Like: 58 °F
Forecast: 52 / 60 °F
Wind: 8 mph from Northwest

Location: Auckland Airport

Current Time: Jul 30, 2014 at 11:47:01 AM

Latest Report: Jul 30, 2014 at 11:00 AM


Visibility: N/A

Pressure: 30.15 "Hg

Humidity: 77%

Dew point: 52 °F

Location of AucklandLocation

Historic Weather in Auckland — Graph

°F

Auckland temperature yesterday

Maximum temperature yesterday: 61 °F (at 12:00 PM)
Minimum temperature yesterday: 41 °F (at 6:00 AM)
Average temperature yesterday: 52 °F

Past Weeks' High & Low Weather Summary

 TemperatureHumidityPressure
High61 °F (Jul 29, 12:00 PM)100% (Jul 16, 8:00 AM)30.27 "Hg (Jul 16, 8:00 AM)
Low36 °F (Jul 18, 8:00 AM)51% (Jul 28, 3:30 PM)29.27 "Hg (Jul 20, 3:30 AM)
Average49 °F83%29.89 "Hg
* Reported Jul 15 10:00 AM — Jul 30 10:30 AM, Auckland, Weather by CustomWeather, © 2014

Note: Actual official high and low records may vary slightly from our data, if they occured in-between our weather recording intervals... More about our weather records

Advertising

Auckland weather history for previous 24 hours

 ConditionsComfort  
Time TempWeatherWind HumidityBarometerVisibility
10:30 AM
Jul 30
59 °FBroken clouds.9 mph82%30.15 "HgN/A
10:00 AM59 °FPassing clouds.10 mph82%30.15 "HgN/A
9:30 AM57 °FCool.6 mph88%30.15 "HgN/A
9:00 AM55 °FPartly sunny.7 mph94%30.15 "HgN/A
8:30 AM54 °FMore clouds than sun.6 mph100%30.15 "HgN/A
8:00 AM52 °FBroken clouds.3 mph100%30.15 "HgN/A
7:30 AM54 °FOvercast.6 mph94%30.15 "HgN/A
7:00 AM54 °FBroken clouds.3 mph94%30.15 "HgN/A
6:30 AM55 °FPartly sunny.3 mph88%30.12 "HgN/A
6:00 AM54 °FMostly cloudy.7 mph94%30.12 "HgN/A
5:30 AM54 °FPassing clouds.7 mph94%30.12 "HgN/A
5:00 AM54 °FOvercast.5 mph100%30.12 "HgN/A
4:30 AM54 °FOvercast.9 mph100%30.12 "HgN/A
4:00 AM54 °FMostly cloudy.7 mph100%30.12 "HgN/A
3:30 AM54 °FLight rain. Passing clouds.6 mph100%30.15 "HgN/A
3:00 AM54 °FRain. Passing clouds.5 mph100%30.15 "Hg4 mi
2:30 AM54 °FLight rain. Overcast.5 mph100%30.15 "Hg6 mi
2:00 AM54 °FLight rain. Passing clouds.5 mph100%30.15 "Hg6 mi
1:30 AM54 °FRain. Mostly cloudy.5 mph100%30.15 "Hg4 mi
1:00 AM55 °FRain showers. Overcast.7 mph94%30.18 "Hg5 mi
12:30 AM55 °FLight rain. Mostly cloudy.7 mph88%30.18 "HgN/A
12:00 AM55 °FOvercast.8 mph88%30.18 "HgN/A
11:30 PM
Jul 29
55 °FPartly cloudy.7 mph88%30.18 "HgN/A
11:00 PM57 °FMostly cloudy.8 mph82%30.18 "HgN/A
10:30 PM55 °FOvercast.8 mph88%30.18 "HgN/A
10:00 PM55 °FPassing clouds.7 mph88%30.18 "HgN/A
9:30 PM55 °FPassing clouds.8 mph88%30.18 "HgN/A
9:00 PM55 °FCool.8 mph88%30.18 "HgN/A
8:30 PM57 °FCool.9 mph82%30.18 "HgN/A
8:00 PM55 °FCool.9 mph88%30.18 "HgN/A
7:30 PM55 °FCool.6 mph82%30.18 "HgN/A
7:00 PM55 °FPassing clouds.6 mph82%30.18 "HgN/A
6:30 PM55 °FPassing clouds.6 mph82%30.18 "HgN/A
6:00 PM55 °FOvercast.6 mph82%30.18 "HgN/A
5:30 PM57 °FPassing clouds.8 mph77%30.18 "HgN/A
5:00 PM57 °FSprinkles. Mostly cloudy.8 mph77%30.18 "HgN/A
4:30 PM59 °FPartly sunny.9 mph72%30.18 "HgN/A
4:00 PM59 °FBroken clouds.10 mph72%30.18 "HgN/A
3:30 PM59 °FBroken clouds.9 mph68%30.18 "HgN/A
3:00 PM61 °FCool.8 mph63%30.18 "HgN/A
2:30 PM59 °FCool.10 mph68%30.18 "HgN/A
2:00 PM59 °FPassing clouds.9 mph68%30.18 "HgN/A
1:30 PM59 °FCool.9 mph68%30.18 "HgN/A
1:00 PM59 °FCool.10 mph68%30.21 "HgN/A
12:30 PM59 °FCool.9 mph68%30.21 "HgN/A
12:00 PM61 °FCool.10 mph63%30.21 "HgN/A
11:30 AM59 °FCool.12 mph68%30.24 "HgN/A
11:00 AM57 °FCool.12 mph67%30.24 "HgN/A
Weather by CustomWeather, © 2014

See weather overviewHow to use our weather pages